This is the latest recevied weather packets stored in our database for station/object DD3UTS-13. If no packets are shown the sender has not sent any weather packets the latest 10 day(s).
| Time | Temp. | Humidity | Pressure | Rain* | Wind** | Luminosity | Snow |
|---|---|---|---|---|---|---|---|
| 1777540532 | 13.33° C | 35% | 1030.2 hPa | 0 mm | - | 538 W/m² | - |
| 1777540232 | 12.78° C | 34% | 1030.3 hPa | 0 mm | - | 533 W/m² | - |
| 1777539932 | 12.78° C | 35% | 1030.3 hPa | 0 mm | - | 525 W/m² | - |
| 1777539631 | 12.78° C | 36% | 1030.3 hPa | 0 mm | - | 529 W/m² | - |
| 1777539331 | 12.22° C | 35% | 1030.4 hPa | 0 mm | - | 508 W/m² | - |
| 1777539032 | 11.67° C | 35% | 1030.3 hPa | 0 mm | - | 457 W/m² | - |
| 1777538732 | 11.67° C | 35% | 1030.3 hPa | 0 mm | - | 527 W/m² | - |
| 1777538432 | 12.22° C | 36% | 1030.3 hPa | 0 mm | - | 512 W/m² | - |
| 1777538132 | 11.67° C | 36% | 1030.4 hPa | 0 mm | - | 517 W/m² | - |
| 1777537832 | 11.67° C | 36% | 1030.3 hPa | 0 mm | - | 522 W/m² | - |
| 1777537532 | 11.11° C | 37% | 1030.3 hPa | 0 mm | - | 501 W/m² | - |
| 1777537232 | 11.11° C | 36% | 1030.3 hPa | 0 mm | - | 508 W/m² | - |
| 1777536932 | 11.11° C | 36% | 1030.3 hPa | 0 mm | - | 501 W/m² | - |
| 1777536632 | 11.11° C | 36% | 1030.4 hPa | 0 mm | - | 496 W/m² | - |
| 1777536332 | 11.67° C | 37% | 1030.4 hPa | 0 mm | - | 489 W/m² | - |
| 1777536031 | 11.67° C | 37% | 1030.3 hPa | 0 mm | - | 486 W/m² | - |
| 1777535731 | 11.11° C | 36% | 1030.3 hPa | 0 mm | - | 484 W/m² | - |
| 1777535432 | 11.11° C | 36% | 1030.4 hPa | 0 mm | - | 480 W/m² | - |
| 1777535132 | 10.56° C | 36% | 1030.4 hPa | 0 mm | - | 473 W/m² | - |
| 1777534832 | 11.11° C | 38% | 1030.5 hPa | 0 mm | - | 466 W/m² | - |
| 1777534532 | 11.11° C | 38% | 1030.4 hPa | 0 mm | - | 466 W/m² | - |
| 1777534232 | 10.56° C | 37% | 1030.4 hPa | 0 mm | - | 460 W/m² | - |
| 1777533931 | 10.56° C | 37% | 1030.3 hPa | 0 mm | - | 459 W/m² | - |
| 1777533631 | 10.56° C | 38% | 1030.4 hPa | 0 mm | - | 454 W/m² | - |
| 1777533332 | 10.56° C | 38% | 1030.4 hPa | 0 mm | - | 447 W/m² | - |
* Rain latest 24 hours (hover to see other rain measurements)
** Current wind speed in m/s (hover to see current wind gust speed)